Regional Weather Roundup
Issued by NWS

Home | Current Version | Previous Version | Text Only | Print | Product List | Glossary On
Versions: 1 2 3 4 5 6 7 8 9 10 11 12 13 14 15 16 17 18 19 20 21 22 23 24 25 26 27 28 29 30 31 32 33 34 35 36 37 38 39 40 41 42 43 44 45 46 47 48 49 50
000
ASUS45 KPSR 242110
RWRAZ

ARIZONA HOURLY REGIONAL WEATHER ROUNDUP
NATIONAL WEATHER SERVICE PHOENIX AZ
200 PM MST WED MAY 24 2017

NOTE: FAIR INDICATES FEW OR NO CLOUDS BELOW 12,000 FEET WITH NO
SIGNIFICANT WEATHER AND/OR OBSTRUCTIONS TO VISIBILITY.

AZZ001>003-036-242200-
NORTHWEST ARIZONA

CITY           SKY/WX    TMP DP  RH WIND       PRES   REMARKS
BULLHEAD CITY  PTSUNNY  108  23   5 S16G32    29.57F
KINGMAN        MOSUNNY   98  28   8 SW25G35   29.80F
$$

AZZ004>008-015-016-018-242200-
NORTH CENTRAL ARIZONA

CITY           SKY/WX    TMP DP  RH WIND       PRES   REMARKS
GRAND CANYON   SUNNY     82  22  11 SW28G35   29.99F
WILLIAMS       SUNNY     81  21  11 SW15G28   30.04F
PRESCOTT       SUNNY     88  24  10 SW15G28   29.93F
FLAGSTAFF      SUNNY     78  21  12 SW26G35   30.04F
PAYSON         SUNNY     86  19   8 SW12G24   29.99F
PAGE           SUNNY     93  22   7 W10       29.75F
$$

AZZ009>014-017-242200-
NORTHEAST ARIZONA

CITY           SKY/WX    TMP DP  RH WIND       PRES   REMARKS
WINSLOW        SUNNY     92  18   6 W21G30    29.88F
SAINT JOHNS    SUNNY     88  14   6 W15G28    29.92F
WINDOW ROCK    SUNNY     82  24  12 W18G26    30.00F
SHOW LOW       SUNNY     81  18   9 SW21G29   30.03F
$$

AZZ540-542>544-546-548-242200-
GREATER PHOENIX AREA

CITY           SKY/WX    TMP DP  RH WIND       PRES   REMARKS
PHOENIX        MOSUNNY  103  27   7 W9        29.66F
BUCKEYE          N/A    104  28   7 SW12G23   29.66F
GLENDALE       MOSUNNY  106  23   5 SW14      29.68F
LUKE AFB       SUNNY    104  29   7 SW12G23   29.65F
DEER VALLEY    SUNNY    102  21   5 SW12G23   29.69F
SCOTTSDALE     SUNNY    102  22   6 W9G17     29.71F
MESA-FALCON    MOSUNNY  102  28   7 W12G17    29.70F
MESA-GATEWAY   SUNNY    100  28   8 W12G17    29.70F
CHANDLER       SUNNY    104  25   6 SW12      29.68F
$$

AZZ539-553-242200-
SOUTHWEST MARICOPA COUNTY AND PINAL COUNTY

CITY           SKY/WX    TMP DP  RH WIND       PRES   REMARKS
CASA GRANDE    SUNNY    102  31   8 W9        29.70F
GILA BEND      SUNNY    107  20   4 S15       29.64F
$$

AZZ503-504-507>509-242200-
SOUTHEAST ARIZONA

CITY           SKY/WX    TMP DP  RH WIND       PRES   REMARKS
TUCSON         SUNNY    101  21   6 W5        29.81F
DAVIS-MONTHAN  MOSUNNY  100  21   6 W12G24    29.80F
RYAN FIELD     SUNNY    100  23   6 SW7       29.79F
NOGALES        SUNNY     98  14   4 SW8       29.90F
SIERRA VISTA   SUNNY     93  12   5 W7G26     29.97S
DOUGLAS        SUNNY     94  13   5 MISG      29.90F
SAFFORD        SUNNY    100  20   5 NW15G30   29.78F
$$

AZZ532-242200-
SOUTHWEST ARIZONA

CITY           SKY/WX    TMP DP  RH WIND       PRES   REMARKS
YUMA           PTSUNNY  104  31   8 S10       29.63F
$$

CAZ041-043-047-048-061-525>527-560>570-242200-
SOUTHERN CALIFORNIA

CITY           SKY/WX    TMP DP  RH WIND       PRES   REMARKS
DOWNTOWN L.A.  MOSUNNY   75  56  51 CALM      29.83F
L.A. AIRPORT   PTSUNNY   66  56  70 W10       29.85F
SAN DIEGO      PTSUNNY   69  55  60 W12       29.88F
BURBANK        MOSUNNY   77  53  43 S13       29.83F
ONTARIO        MOSUNNY   83  44  25 W10G20    29.83F
RIVERSIDE      SUNNY     84  48  28 W9G17     29.82F
PALM SPRINGS   MOSUNNY  104  37  10 NW16      29.64F
EL CENTRO NAS  PTSUNNY  106  19   4 E8        29.61F
IMPERIAL       MOSUNNY  108  29   6 S12       29.60F HX 100
BLYTHE         SUNNY    108  15   3 S18       29.60F
NEEDLES        PTSUNNY  109  17   4 SW16G22   29.60F HX 100
$$

NVZ020-UTZ003-242200-
SOUTHERN NEVADA-UTAH

CITY           SKY/WX    TMP DP  RH WIND       PRES   REMARKS
LAS VEGAS      MOSUNNY   99  -2   2 SW16G31   29.62F
SALT LAKE CITY MOSUNNY   88  33  14 W12G23    29.66F
$$

NMZ009-TXZ055-242200-
NEW MEXICO-WEST TEXAS

CITY           SKY/WX    TMP DP  RH WIND       PRES   REMARKS
ALBUQUERQUE    MOSUNNY   87  24  10 NW20      29.87F
EL PASO        SUNNY     90  27  10 W13G24    29.88F
$$


........................KEY........................
SKY/WX - SKY CONDITION/WEATHER
TMP    - TEMPERATURE IN FAHRENHEIT
DP     - DEW POINT IN FAHRENHEIT
RH     - RELATIVE HUMIDITY IN PERCENT
WIND   - DIRECTION AND SPEED IN MILES PER HOUR (MPH)
VRB    - VARIABLE WIND DIRECTION
PRES   - MEAN SEA LEVEL PRESSURE IN INCHES OF MERCURY
         F - FALLING PRESSURE   R - RISING PRESSURE
         S - STEADY PRESSURE
VSB    - VISIBILITY IN MILES
HX     - HEAT INDEX IN FAHRENHEIT
WCI    - WIND CHILL INDEX IN FAHRENHEIT
TC     - TEMPERATURE IN CELSIUS WHICH IS ALSO KNOWN AS
         TEMPERATURE IN CENTIGRADE
AFB    - AIR FORCE BASE
         LUKE AFB IS LUKE AIR FORCE BASE
         DAVIS-MONTHAN IS DAVIS-MONTHAN AIR FORCE BASE
NAS    - NAVAL AIR STATION
         EL CENTRO NAS IS EL CENTRO NAVAL AIR STATION
N/A    - NOT AVAILABLE




USA.gov is the U.S. government's official web portal to all federal, state and local government web resources and services.